• In Hungary
  • List of Countries
  • For 7 days
  • Water Temperature
  • Satellite Maps
  • Weather Map
  • News
  • Weather Widgets
  • user-avatar
    Login

    Hourly Weather Nowiny

    Today, 19 August, Sunday

    Time Temperature Precipitation Wind Pressure Humidity
    00:00 +22°C° 0 mm 1 mps 753 mmHg 73%
    01:00 +21°C° 0 mm 1 mps 753 mmHg 75%
    02:00 +21°C° 0 mm 1 mps 753 mmHg 77%
    03:00 +21°C° 0 mm 1 mps 753 mmHg 79%
    04:00 +20°C° 0 mm 1 mps 753 mmHg 80%
    05:00 +21°C° 0 mm 1 mps 753 mmHg 77%
    06:00 +20°C° 0 mm 0 mps 753 mmHg 73%
    07:00 +21°C° 0 mm 0 mps 753 mmHg 69%
    08:00 +25°C° 0 mm 1 mps 753 mmHg 64%
    09:00 +27°C° 0 mm 1 mps 753 mmHg 59%
    10:00 +28°C° 0 mm 1 mps 753 mmHg 53%
    11:00 +29°C° 0 mm 1 mps 753 mmHg 50%
    12:00 +30°C° 0 mm 1 mps 753 mmHg 47%
    13:00 +29°C° 0 mm 0 mps 752 mmHg 44%
    14:00 +29°C° 0 mm 0 mps 752 mmHg 43%
    15:00 +29°C° 0 mm 0 mps 752 mmHg 43%
    16:00 +28°C° 0 mm 0 mps 752 mmHg 43%
    17:00 +27°C° 0 mm 0 mps 751 mmHg 47%
    18:00 +28°C° 0 mm 1 mps 751 mmHg 51%
    19:00 +27°C° 0 mm 1 mps 751 mmHg 56%
    20:00 +26°C° 0 mm 1 mps 751 mmHg 58%
    21:00 +25°C° 0 mm 1 mps 751 mmHg 60%
    22:00 +24°C° 0 mm 1 mps 751 mmHg 62%
    23:00 +24°C° 0 mm 2 mps 751 mmHg 64%

    Tomorrow, 20 August, Monday

    Time Temperature Precipitation Wind Pressure Humidity
    00:00 +23°C° 0 mm 2 mps 751 mmHg 66%
    01:00 +23°C° 0 mm 2 mps 750 mmHg 67%
    02:00 +23°C° 0 mm 2 mps 750 mmHg 69%
    03:00 +21°C° 0 mm 2 mps 750 mmHg 70%
    04:00 +21°C° 0 mm 2 mps 750 mmHg 71%
    05:00 +23°C° 0.1 mm 2 mps 750 mmHg 69%
    06:00 +24°C° 0.1 mm 2 mps 750 mmHg 67%
    07:00 +25°C° 0.1 mm 2 mps 750 mmHg 65%
    08:00 +27°C° 0 mm 2 mps 750 mmHg 59%
    09:00 +28°C° 0 mm 3 mps 750 mmHg 54%
    10:00 +30°C° 0 mm 3 mps 750 mmHg 48%
    11:00 +30°C° 0 mm 3 mps 749 mmHg 46%
    12:00 +32°C° 0 mm 4 mps 749 mmHg 43%
    13:00 +32°C° 0 mm 4 mps 749 mmHg 41%
    14:00 +32°C° 0 mm 4 mps 749 mmHg 41%
    15:00 +32°C° 0 mm 4 mps 748 mmHg 41%
    16:00 +32°C° 0 mm 4 mps 748 mmHg 41%
    17:00 +29°C° 0 mm 4 mps 749 mmHg 47%
    18:00 +27°C° 0 mm 4 mps 749 mmHg 53%
    19:00 +26°C° 0 mm 4 mps 749 mmHg 59%
    20:00 +25°C° 0 mm 4 mps 749 mmHg 64%
    21:00 +22°C° 0 mm 4 mps 750 mmHg 68%
    22:00 +21°C° 0 mm 3 mps 750 mmHg 73%
    23:00 +21°C° 0 mm 3 mps 751 mmHg 75%

    Day after tomorrow, 21 August, Tuesday

    Time Temperature Precipitation Wind Pressure Humidity
    00:00 +20°C° 0 mm 3 mps 751 mmHg 78%
    01:00 +19°C° 0 mm 3 mps 751 mmHg 81%
    02:00 +18°C° 0 mm 3 mps 752 mmHg 82%
    03:00 +17°C° 0 mm 3 mps 752 mmHg 83%
    04:00 +17°C° 0 mm 2 mps 752 mmHg 84%
    05:00 +17°C° 0 mm 3 mps 753 mmHg 79%
    06:00 +18°C° 0 mm 3 mps 753 mmHg 75%
    07:00 +18°C° 0 mm 3 mps 753 mmHg 70%
    08:00 +19°C° 0 mm 3 mps 753 mmHg 63%
    09:00 +21°C° 0 mm 3 mps 754 mmHg 57%
    10:00 +22°C° 0 mm 3 mps 754 mmHg 50%
    11:00 +24°C° 0 mm 3 mps 754 mmHg 46%
    12:00 +25°C° 0 mm 3 mps 753 mmHg 41%
    13:00 +26°C° 0 mm 3 mps 753 mmHg 37%
    14:00 +26°C° 0 mm 3 mps 753 mmHg 36%
    15:00 +26°C° 0 mm 3 mps 753 mmHg 36%
    16:00 +26°C° 0 mm 2 mps 753 mmHg 35%
    17:00 +25°C° 0 mm 2 mps 753 mmHg 40%
    18:00 +23°C° 0 mm 2 mps 753 mmHg 44%
    19:00 +21°C° 0 mm 1 mps 753 mmHg 49%
    20:00 +20°C° 0 mm 1 mps 753 mmHg 50%
    21:00 +20°C° 0 mm 1 mps 754 mmHg 52%
    22:00 +19°C° 0 mm 1 mps 754 mmHg 54%
    23:00 +18°C° 0 mm 1 mps 754 mmHg 56%

    22 August, Wednesday

    Time Temperature Precipitation Wind Pressure Humidity
    00:00 +18°C° 0 mm 1 mps 754 mmHg 58%
    01:00 +16°C° 0 mm 1 mps 754 mmHg 59%
    02:00 +16°C° 0 mm 1 mps 754 mmHg 61%
    03:00 +16°C° 0 mm 1 mps 754 mmHg 62%
    04:00 +15°C° 0 mm 1 mps 753 mmHg 64%
    05:00 +18°C° 0 mm 1 mps 753 mmHg 61%
    06:00 +19°C° 0 mm 1 mps 753 mmHg 59%
    07:00 +20°C° 0 mm 1 mps 754 mmHg 57%
    08:00 +22°C° 0 mm 1 mps 753 mmHg 52%
    09:00 +24°C° 0 mm 2 mps 753 mmHg 46%
    10:00 +26°C° 0 mm 2 mps 753 mmHg 41%
    11:00 +27°C° 0 mm 2 mps 753 mmHg 39%
    12:00 +28°C° 0 mm 2 mps 753 mmHg 36%
    13:00 +29°C° 0 mm 2 mps 752 mmHg 34%
    14:00 +29°C° 0 mm 2 mps 752 mmHg 34%
    15:00 +29°C° 0 mm 2 mps 751 mmHg 33%
    16:00 +29°C° 0 mm 2 mps 751 mmHg 33%
    17:00 +27°C° 0 mm 1 mps 751 mmHg 38%
    18:00 +25°C° 0 mm 1 mps 751 mmHg 43%
    19:00 +24°C° 0 mm 1 mps 751 mmHg 48%
    20:00 +23°C° 0 mm 1 mps 751 mmHg 50%
    21:00 +22°C° 0 mm 1 mps 751 mmHg 52%
    22:00 +21°C° 0 mm 1 mps 751 mmHg 54%
    23:00 +21°C° 0 mm 1 mps 751 mmHg 56%

    23 August, Thursday

    Time Temperature Precipitation Wind Pressure Humidity
    00:00 +20°C° 0 mm 1 mps 751 mmHg 58%
    01:00 +20°C° 0 mm 1 mps 750 mmHg 60%
    02:00 +20°C° 0 mm 1 mps 750 mmHg 61%
    03:00 +19°C° 0 mm 1 mps 750 mmHg 63%
    04:00 +19°C° 0 mm 1 mps 750 mmHg 64%
    05:00 +20°C° 0 mm 1 mps 750 mmHg 62%
    06:00 +21°C° 0 mm 1 mps 750 mmHg 60%
    07:00 +22°C° 0 mm 1 mps 750 mmHg 58%
    08:00 +25°C° 0 mm 1 mps 750 mmHg 52%
    09:00 +27°C° 0 mm 1 mps 749 mmHg 46%
    10:00 +29°C° 0 mm 1 mps 749 mmHg 40%
    11:00 +30°C° 0 mm 1 mps 749 mmHg 38%
    12:00 +31°C° 0 mm 1 mps 749 mmHg 35%
    13:00 +31°C° 0 mm 1 mps 748 mmHg 33%
    14:00 +31°C° 0 mm 1 mps 748 mmHg 33%
    15:00 +31°C° 0 mm 1 mps 748 mmHg 33%
    16:00 +31°C° 0 mm 1 mps 747 mmHg 33%
    17:00 +29°C° 0 mm 1 mps 747 mmHg 38%
    18:00 +28°C° 0 mm 1 mps 747 mmHg 42%
    19:00 +26°C° 0 mm 1 mps 747 mmHg 46%
    20:00 +25°C° 0 mm 1 mps 747 mmHg 48%
    21:00 +25°C° 0 mm 1 mps 746 mmHg 50%
    22:00 +24°C° 0 mm 1 mps 746 mmHg 51%
    23:00 +23°C° 0 mm 1 mps 746 mmHg 54%

    24 August, Friday

    Time Temperature Precipitation Wind Pressure Humidity
    00:00 +23°C° 0 mm 2 mps 746 mmHg 56%
    01:00 +21°C° 0 mm 2 mps 745 mmHg 58%
    02:00 +21°C° 0 mm 2 mps 745 mmHg 61%
    03:00 +21°C° 0 mm 2 mps 745 mmHg 63%
    04:00 +21°C° 0 mm 2 mps 744 mmHg 66%
    05:00 +23°C° 0 mm 2 mps 744 mmHg 65%
    06:00 +24°C° 0 mm 2 mps 744 mmHg 65%
    07:00 +25°C° 0 mm 3 mps 744 mmHg 64%
    08:00 +26°C° 0 mm 3 mps 744 mmHg 59%
    09:00 +28°C° 0 mm 3 mps 744 mmHg 54%
    10:00 +30°C° 0 mm 3 mps 744 mmHg 48%
    11:00 +30°C° 0.1 mm 3 mps 744 mmHg 46%
    12:00 +31°C° 0.1 mm 3 mps 744 mmHg 44%
    13:00 +31°C° 0.1 mm 3 mps 743 mmHg 42%
    14:00 +31°C° 0.1 mm 3 mps 743 mmHg 45%
    15:00 +30°C° 0.1 mm 3 mps 743 mmHg 47%
    16:00 +29°C° 0.1 mm 3 mps 743 mmHg 50%
    17:00 +27°C° 0.9 mm 3 mps 743 mmHg 58%
    18:00 +26°C° 0.9 mm 4 mps 743 mmHg 66%
    19:00 +23°C° 0.9 mm 4 mps 743 mmHg 75%
    20:00 +22°C° 0.5 mm 3 mps 743 mmHg 79%
    21:00 +21°C° 0.5 mm 2 mps 743 mmHg 84%
    22:00 +20°C° 0.5 mm 2 mps 744 mmHg 88%
    23:00 +20°C° 0.1 mm 2 mps 744 mmHg 89%
    Show more